SCP
0 0 0 0 0 0 0 0 0 0 0 0 0 0 0 0 0 0 0 0 0 0 0 0 0 0 0 0 0 0 0 0 0 0 0 0 0 0 0 0 0 0 0
0 0 0 0 0 0 0 0 0 0 0 0 0 0 0 0 0 0 0 0 0 0 0 0 0 0 0 0 0 0 0 0 0 0 0 0 0 0 0 0 0 0 0
0 0 0 0 0 0 0 0 0 0 0 0 0 0 0 0 0 0 0 0 0 0 0 0 0 0 0 0 0 0 0 0 0 0 0 0 0 0 0 0 0 0 0
0 0 0 0 0 0 0 0 0 0 0 0 0 0 0 0 0 0 0 0 0 0 0 0 0 0 0 0 0 0 0 0 0 0 0 0 0 0 0 0 0 0 0
0 0 0 0 0 0 0 0 0 0 0 0 0 0 0 0 0 0 0 0 0 0 0 0 0 0 0 0 0 0 0 0 0 0 0 0 0 0 0 0 0 0 0
0 0 0 0 0 0 0 0 0 0 0 0 0 0 0 0 0 0 0 0 0 0 0 0 0 0 0 0 0 0 0 0 0 0 0 0 0 0 0 0 0 0 0
0 0 0 0 0 0 0 0 0 0 0 0 0 0 0 0 0 0 0 0 0 0 0 0 0 0 0 0 0 0 0 0 0 0 0 0 0 0 0 0 0 0 0
0 0 0 0 0 0 0 0 0 0 0 0 0 0 0 0 0 0 0 0 0 0 0 0 0 0 0 0 0 0 0 0 0 0 0 0 0 0 0 0 0 0 0
0 0 0 0 0 0 0 0 0 0 0 0 0 0 0 0 0 0 0 0 0 0 0 0 0 0 0 0 0 0 0 0 0 0 0 0 0 0 0 0 0 0 0
0 0 0 0 0 0 0 0 0 0 0 0 0 0 0 0 0 0 0 0 0 0 0 0 0 0 0 0 0 0 0 0 0 0 0 0 0 0 0 0 0 0 0
0 0 0 0 0 0 0 0 0 0 0 0 0 0 0 0 0 0 0 0 0 0 0 0 0 0 0 0 0 0 0 0 0 0 0 0 0 0 0 0 0 0 0
0 0 0 0 0 0 0 0 0 0 0 0 0 0 0 0 0 0 0 0 0 0 0 0 0 0 0 0 0 0 0 0 0 0 0 0 0 0 0 0 0 0 0
0 0 0 0 0 0 0 0 0 0 0 0 0 0 0 0 0 0 0 0 0 0 0 0 0 0 0 0 0 0 0 0 0 0 0 0 0 0 0 0 0 0 0
0 0 0 0 0 0 0 0 0 0 0 0 0 0 0 0 0 0 0 0 0 0 0 0 0 0 0 0 0 0 0 0 0 0 0 0 0 0 0 0 0 0 0
0 0 0 0 0 0 0 0 0 0 0 0 0 0 0 0 0 0 0 0 0 0 0 0 0 0 0 0 0 0 0 0 0 0 0 0 0 0 0 0 0 0 0
0 0 0 0 0 0 0 0 0 0 0 0 0 0 0 0 0 0 0 0 0 0 0 0 0 0 0 0 0 0 0 0 0 0 0 0 0 0 0 0 0 0 0
0 0 0 0 0 0 0 0 0 0 0 0 0 0 0 0 0 0 0 0 0 0 0 0 0 0 0 0 0 0 0 0 0 0 0 0 0 0 0 0 0 0 0
0 0 0 0 0 0 0 0 0 0 0 0 0 0 0 0 0 0 0 0 0 0 0 0 0 0 0 0 0 0 0 0 0 0 0 0 0 0 0 0 0 0 0
0 0 0 0 0 0 0 0 0 0 0 0 0 0 0 0 0 0 0 0 0 0 0 0 0 0 0 0 0 0 0 0 0 0 0 0 0 0 0 0 0 0 0
0 0 0 0 0 0 0 0 0 0 0 0 0 0 0 0 0 0 0 0 0 0 0 0 0 0 0 0 0 0 0 0 0 0 0 0 0 0 0 0 0 0 0
0 0 0 0 0 0 0 0 0 0 0 0 0 0 0 0 0 0 0 0 0 0 0 0 0 0 0 0 0 0 0 0 0 0 0 0 0 0 0 0 0 0 0
0 0 0 0 0 0 0 0 0 0 0 0 0 0 0 0 0 0 0 0 0 0 0 0 0 0 0 0 0 0 0 0 0 0 0 0 0 0 0 0 0 0 0
0 0 0 0 0 0 0 0 0 0 0 0 0 0 0 0 0 0 0 0 0 0 0 0 0 0 0 0 0 0 0 0 0 0 0 0 0 0 0 0 0 0 0
0 0 0 0 0 0 0 0 0 0 0 0 0 0 0 0 0 0 0 0 0 0 0 0 0 0 0 0 0 0 0 0 0 0 0 0 0 0 0 0 0 0 0
0 0 0 0 0 0 0 0 0 0 0 0 0 0 0 0 0 0 0 0 0 0 0 0 0 0 0 0 0 0 0 0 0 0 0 0 0 0 0 0 0 0 0
0 0 0 0 0 0 0 0 0 0 0 0 0 0 0 0 0 0 0 0 0 0 0 0 0 0 0 0 0 0 0 0 0 0 0 0 0 0 0 0 0 0 0
Wind_Speed
1 1 1 1 1 1 1 1 1 1 1 2 2 2 2 2 2 3 3 3 4 3 3 4 4 4 3 2 2 3 3 4 7 5 3 3 3 4 4 3 4 4 5
1 1 1 1 1 0 1 1 1 2 2 2 2 2 3 3 3 3 3 3 4 4 4 4 5 3 4 3 3 4 4 4 5 7 5 3 4 4 4 4 4 4 4
1 1 1 0 0 1 1 1 1 2 2 2 2 3 3 3 3 4 4 4 4 4 4 5 5 4 5 4 4 4 4 4 4 5 6 3 3 3 4 4 5 4 5
1 1 1 1 1 1 1 1 1 1 2 2 3 3 4 3 3 3 3 4 4 4 4 4 4 5 5 4 4 5 4 4 4 5 5 4 4 3 3 4 4 3 4
0 0 1 1 1 1 1 1 1 2 2 3 3 3 3 3 3 3 4 4 4 4 4 4 4 5 6 5 4 4 4 4 4 4 5 4 4 3 3 3 5 4 4
0 1 1 1 1 1 2 2 2 2 2 3 3 3 4 3 5 5 4 4 4 5 4 4 4 4 6 7 8 7 6 5 5 5 5 6 6 4 3 3 3 4 4
1 1 1 1 2 2 2 2 2 3 3 3 4 4 4 5 6 6 6 4 4 5 5 4 4 4 5 5 7 8 8 9 9 6 7 7 6 4 4 4 4 4 5
1 1 2 2 2 3 2 2 3 3 3 3 4 4 4 5 6 6 6 4 4 5 5 5 5 5 5 4 4 5 6 7 7 6 7 7 6 4 4 4 4 4 5
2 2 2 2 3 3 3 3 3 3 3 3 3 4 4 5 6 6 5 3 4 5 5 5 5 5 7 6 4 5 6 6 7 9 10 9 10 9 5 2 2 3 5
2 3 2 2 3 4 4 4 3 3 3 3 4 4 4 5 6 6 5 3 4 4 4 4 5 6 7 6 5 5 7 6 4 5 6 7 6 6 7 4 4 4 4
2 2 3 3 3 4 3 3 3 3 3 3 4 4 4 5 6 7 6 3 4 4 4 4 4 7 7 7 6 5 7 6 4 4 4 4 3 3 3 3 3 4 5
2 2 3 3 3 2 3 3 3 3 3 4 4 4 4 4 5 6 7 6 5 4 5 4 4 6 7 7 6 6 8 6 3 3 3 3 3 3 3 3 4 4 5
2 3 3 3 3 2 3 3 3 2 3 3 4 4 4 3 4 6 7 8 7 5 4 6 6 7 6 5 6 7 5 3 3 3 4 4 3 3 3 2 3 3 4
3 3 3 3 3 2 3 3 3 3 4 4 4 4 4 4 3 3 3 4 5 5 4 5 6 7 5 5 4 4 3 3 3 4 4 3 2 2 2 2 2 2 3
3 3 3 3 3 3 3 3 4 4 5 5 4 4 4 5 6 7 5 4 3 3 3 3 2 2 2 2 3 3 2 2 3 3 3 3 3 3 3 2 2 2 3
3 3 3 3 3 3 3 4 6 7 8 9 9 7 5 7 8 7 7 7 7 5 3 3 3 3 3 3 3 3 2 3 3 2 2 3 3 3 3 2 2 2 3
4 4 3 3 3 3 3 3 4 5 6 8 8 8 8 7 7 7 7 7 6 4 3 3 3 3 3 3 3 3 3 3 2 2 3 3 3 3 3 2 2 2 3
4 4 4 3 3 3 3 3 3 3 4 4 4 6 7 7 7 7 6 5 3 2 2 3 4 3 3 3 3 3 3 2 2 2 2 2 3 3 3 2 2 3 3
3 3 3 3 3 3 3 3 3 3 4 4 3 3 4 6 6 6 4 2 2 3 3 3 4 4 3 3 3 3 3 3 2 2 2 2 2 2 2 3 3 3 3
3 4 3 3 3 3 3 3 3 3 3 4 4 3 2 2 2 3 2 2 3 3 3 4 4 4 3 3 3 3 3 3 2 2 3 3 2 2 2 3 2 2 3
3 3 3 3 3 3 3 3 3 3 4 4 4 4 5 3 3 3 3 3 3 4 4 4 4 3 3 3 3 3 4 3 3 3 3 2 2 2 2 2 2 2 2
3 3 3 3 3 3 3 3 3 4 4 5 4 4 5 3 3 3 4 4 3 3 3 3 4 3 3 3 3 3 4 4 3 3 3 3 2 2 2 2 2 2 2
3 3 3 3 3 3 3 3 3 4 4 4 4 4 3 3 4 4 4 4 3 3 3 3 4 3 3 3 3 3 4 4 4 3 3 3 3 2 2 2 2 2 2
3 3 4 3 3 3 4 4 4 4 4 4 4 4 4 4 4 5 4 4 4 3 3 3 4 5 5 4 3 3 4 4 3 3 5 4 3 3 3 3 3 3 3
3 3 4 4 4 4 4 4 4 4 4 4 4 4 4 4 4 4 4 4 4 4 4 4 4 4 5 6 5 4 5 6 5 4 4 4 4 4 4 4 3 3 3
3 4 4 4 4 4 4 4 4 4 4 4 4 4 4 4 5 4 4 4 3 4 4 4 5 5 6 5 6 6 6 6 6 6 4 4 4 4 4 4 4 4 3
Wind_Direction
107 104 113 128 153 174 224 245 247 248 223 217 217 214 219 221 216 214 226 226 232 242 243 239 249 249 246 243 243 246 247 243 261 278 274 278 259 269 279 275 270 269 275
128 111 105 87 79 166 246 247 237 239 236 230 225 227 235 229 221 222 229 235 234 239 246 244 249 247 243 242 239 244 249 247 254 273 280 276 266 270 271 272 274 269 267
114 122 112 120 226 273 282 281 253 245 246 243 233 232 241 240 233 236 237 239 240 242 242 243 247 242 249 249 245 249 255 259 257 267 277 276 276 281 285 280 274 269 270
104 148 198 236 243 252 268 270 267 265 256 250 248 245 244 247 248 248 250 251 251 251 246 245 247 240 246 245 246 247 253 260 262 266 272 275 270 274 276 283 291 280 279
125 229 276 288 270 254 258 263 267 271 268 262 258 258 253 246 251 258 255 253 256 257 256 253 253 253 257 255 256 253 248 254 260 265 270 276 269 275 271 272 278 290 281
174 268 297 296 283 267 269 273 277 274 276 268 259 259 257 256 264 263 267 258 256 253 257 261 262 255 262 264 265 262 252 247 252 255 263 267 270 268 277 275 282 296 292
264 281 297 284 282 279 277 272 266 267 275 273 264 257 258 264 267 267 268 266 257 253 252 256 263 264 259 262 264 265 261 258 250 248 256 261 268 261 263 267 264 266 268
288 291 298 298 290 288 276 263 268 272 266 267 268 260 261 265 269 273 276 268 263 260 254 248 252 260 261 262 264 263 263 261 256 251 254 262 263 262 244 249 257 268 279
276 278 283 282 281 278 267 268 271 269 268 272 273 263 263 270 266 269 275 267 264 265 265 260 253 258 265 261 258 267 273 274 266 260 265 270 273 275 272 265 259 268 279
274 284 291 281 274 271 268 274 279 269 269 280 282 272 267 272 271 270 270 262 267 272 271 265 260 268 274 261 249 256 267 275 280 281 274 277 276 274 270 249 236 245 266
280 286 287 281 272 270 276 278 275 276 279 279 282 282 272 270 269 268 270 263 264 271 271 271 269 274 272 267 262 256 269 282 274 268 270 273 275 270 263 255 244 240 246
279 278 278 279 275 273 272 277 275 269 270 274 279 283 275 273 272 271 270 269 275 264 266 270 274 280 279 279 275 283 290 290 278 274 272 273 273 272 269 258 248 245 245
275 274 276 279 275 270 263 266 271 263 260 267 270 274 280 279 273 274 271 271 275 271 274 279 284 285 283 280 286 291 292 283 274 268 267 268 268 272 274 268 265 259 264
267 272 274 275 277 271 263 256 253 251 253 259 264 268 276 280 278 277 270 268 272 275 282 286 287 285 283 286 290 284 273 265 260 266 276 284 293 285 274 268 262 271 275
271 274 277 272 270 273 268 259 259 256 250 256 258 256 265 272 273 278 280 271 264 265 282 286 277 277 273 277 279 275 267 266 265 274 280 287 289 290 286 282 266 262 259
261 266 268 273 275 273 278 289 277 270 274 268 266 265 265 270 287 283 280 282 283 281 277 268 265 262 263 267 270 273 265 262 260 261 262 269 275 279 283 278 268 262 266
251 260 264 265 265 269 273 278 293 298 285 279 275 277 279 287 292 294 295 292 290 286 271 270 271 272 273 274 270 268 269 266 262 258 260 262 265 270 269 271 271 270 274
255 257 255 257 262 265 266 270 273 282 297 299 288 283 287 291 294 299 301 305 296 285 261 266 269 271 274 275 275 274 278 274 263 258 260 267 272 269 264 265 264 263 270
252 256 258 263 265 266 266 266 266 268 274 284 294 293 292 295 296 300 303 286 266 266 264 265 269 272 273 273 273 271 266 261 261 259 261 263 265 263 263 268 273 273 266
248 254 259 259 263 262 261 261 263 264 267 270 273 279 295 297 289 292 278 264 261 264 264 265 270 271 271 270 270 267 263 261 258 255 260 262 263 258 261 266 271 277 279
247 248 248 251 250 251 254 255 258 260 263 268 271 273 279 271 264 266 265 260 258 261 264 264 265 268 266 265 260 255 250 253 250 248 250 254 257 257 262 269 274 271 276
240 241 242 242 246 248 253 255 256 259 264 270 279 283 280 280 272 269 268 268 265 261 261 262 265 264 258 255 253 247 248 252 250 245 243 245 246 246 246 251 261 274 278
237 242 247 247 244 249 256 257 257 259 264 267 272 276 273 269 271 272 273 274 274 272 268 264 267 270 267 256 245 239 245 249 244 233 235 237 235 232 229 236 244 253 261
236 237 245 246 242 243 248 253 253 254 258 263 264 266 267 268 269 271 273 276 275 273 267 261 262 266 269 267 259 249 250 254 242 229 224 230 230 226 224 230 237 240 247
239 239 243 241 238 242 248 253 254 255 257 259 261 266 269 270 270 271 272 274 275 272 272 269 269 268 268 267 266 260 258 258 249 228 218 221 226 224 221 225 229 235 239
242 245 248 244 241 242 246 252 256 259 261 263 264 267 269 271 273 272 273 273 271 274 276 271 269 266 265 266 268 267 259 254 243 229 215 213 217 223 219 223 223 228 235